Location: Invercargill
(46.4000°S, 168.3500°E)
Time: 14:08:37
(UTC+12:00)

Altair - All Passes

Search period start: 24 July 2019 00:00
Search period end: 03 August 2019 00:00
Orbit: 1501 x 1683 km, 47.2° (Epoch: 22 July)

Date Brightness Start Highest point End Pass type
(mag) Time Alt. Az. Time Alt. Az. Time Alt. Az.
24 Jul - 00:39:56 10° NW 00:50:04 72° NNE 01:00:11 10° ESE visible
24 Jul - 02:44:46 10° W 02:55:04 85° S 03:05:12 10° E visible
24 Jul - 04:49:56 10° WSW 05:00:08 76° NNW 05:10:00 10° ENE visible
24 Jul - 06:55:16 10° WSW 07:04:01 35° NW 07:12:28 10° NNE visible
24 Jul - 22:12:58 10° N 22:21:12 30° NE 22:29:29 10° ESE night (unlit)
25 Jul - 00:14:48 10° NW 00:24:52 69° NNE 00:34:58 10° ESE night (unlit)
25 Jul - 02:19:31 10° W 02:29:50 86° S 02:39:59 10° E visible
25 Jul - 04:24:42 10° WSW 04:34:57 79° NNW 04:44:51 10° ENE visible
25 Jul - 06:29:57 10° WSW 06:38:56 38° NW 06:47:36 10° NNE visible
25 Jul - 21:48:13 10° N 21:56:07 27° NE 22:04:08 10° ESE visible
25 Jul - 23:49:41 10° NW 23:59:42 66° NNE 00:09:46 10° ESE night (unlit)
26 Jul - 01:54:16 10° W 02:04:35 86° S 02:14:46 10° E visible
26 Jul - 03:59:28 10° WSW 04:09:44 81° NNW 04:19:42 10° ENE visible
26 Jul - 06:04:40 10° WSW 06:13:50 41° NW 06:22:43 10° NNE visible
26 Jul - 08:14:56 10° WNW 08:16:21 10° WNW 08:17:46 10° NW daylight
26 Jul - 21:23:30 10° N 21:31:04 25° NE 21:38:44 10° E visible
26 Jul - 23:24:35 10° NW 23:34:30 63° NNE 23:44:33 10° ESE night (unlit)
27 Jul - 01:29:02 10° W 01:39:20 87° S 01:49:33 10° E visible
27 Jul - 03:34:14 10° WSW 03:44:31 84° NNW 03:54:33 10° ENE visible
27 Jul - 05:39:23 10° WSW 05:48:44 44° NW 05:57:48 10° NNE visible
27 Jul - 07:48:00 10° W 07:51:22 12° WNW 07:54:43 10° NW daylight
27 Jul - 20:58:50 10° N 21:06:01 23° NE 21:13:18 10° E visible
27 Jul - 22:59:30 10° NW 23:09:21 60° NNE 23:19:19 10° ESE visible
28 Jul - 01:03:48 10° W 01:14:06 88° S 01:24:20 10° E visible
28 Jul - 03:09:00 10° WSW 03:19:18 86° NNW 03:29:22 10° ENE visible
28 Jul - 05:14:07 10° WSW 05:23:38 47° NW 05:32:51 10° NNE visible
28 Jul - 07:21:54 10° W 07:26:23 14° WNW 07:30:49 10° NNW visible
28 Jul - 20:34:15 10° N 20:40:59 21° NE 20:47:49 10° E visible
28 Jul - 22:34:26 10° NW 22:44:11 57° NNE 22:54:06 10° ESE visible
29 Jul - 00:38:36 10° WNW 00:48:51 89° SSW 00:59:07 10° E night (unlit)
29 Jul - 02:43:46 10° WSW 02:54:05 88° NNW 03:04:11 10° ENE visible
29 Jul - 04:48:51 10° WSW 04:58:31 50° NW 05:07:53 10° NE visible
29 Jul - 06:56:04 10° W 07:01:23 16° WNW 07:06:38 10° NNW visible
29 Jul - 20:09:45 10° NNE 20:15:58 19° NE 20:22:15 10° E visible
29 Jul - 22:09:23 10° NW 22:19:02 54° NE 22:28:52 10° ESE visible
30 Jul - 00:13:22 10° WNW 00:23:37 90° N 00:33:53 10° E night (unlit)
30 Jul - 02:18:32 10° W 02:28:51 89° NNW 02:38:59 10° ENE visible
30 Jul - 04:23:36 10° WSW 04:33:23 53° NW 04:42:53 10° NE visible
30 Jul - 06:30:22 10° W 06:36:23 18° NW 06:42:17 10° NNW visible
30 Jul - 19:45:21 10° NNE 19:50:57 17° NE 19:56:36 10° E visible
30 Jul - 21:44:22 10° NW 21:53:54 51° NE 22:03:37 10° ESE visible
30 Jul - 23:48:10 10° WNW 23:58:23 88° NNE 00:08:40 10° E visible
31 Jul - 01:53:18 10° W 02:03:37 89° S 02:13:47 10° ENE visible
31 Jul - 03:58:22 10° WSW 04:08:14 56° NW 04:17:51 10° NE visible
31 Jul - 06:04:47 10° W 06:11:22 20° NW 06:17:49 10° NNW visible
31 Jul - 19:21:05 10° NNE 19:25:56 15° ENE 19:30:51 10° E visible
31 Jul - 21:19:22 10° NNW 21:28:46 48° NE 21:38:22 10° ESE visible
31 Jul - 23:22:57 10° WNW 23:33:10 86° NNE 23:43:26 10° ESE visible
01 Aug - 01:28:05 10° W 01:38:23 88° S 01:48:35 10° E visible
01 Aug - 03:33:07 10° WSW 03:43:06 59° NNW 03:52:48 10° NE visible
01 Aug - 05:39:16 10° W 05:46:20 22° NW 05:53:17 10° N visible
01 Aug - 18:57:03 10° NE 19:00:57 13° ENE 19:04:52 10° E visible
01 Aug - 20:54:24 10° NNW 21:03:39 45° NE 21:13:06 10° ESE visible
01 Aug - 22:57:46 10° WNW 23:07:55 84° NNE 23:18:13 10° ESE visible
02 Aug - 01:02:50 10° W 01:13:08 87° S 01:23:22 10° E night (unlit)
02 Aug - 03:07:53 10° WSW 03:17:56 62° NNW 03:27:44 10° NE visible
02 Aug - 05:13:49 10° W 05:21:18 24° NW 05:28:39 10° N visible
02 Aug - 18:33:29 10° NE 18:35:57 11° ENE 18:38:27 10° ENE visible
02 Aug - 20:29:28 10° NNW 20:38:32 42° NE 20:47:50 10° ESE visible
02 Aug - 22:32:35 10° WNW 22:42:42 82° NNE 22:52:59 10° ESE visible
